Wetterdaten: aktuell Freitag, 21.02.2020 07:28
Datum Zeit Temp. I. Temp. 5cm Temp. 2m Feuchte I. Feuchte 2m Luftdruck Regen Wind Richtung Richtung Taupunkt Windchill Windben
21.02.2020 07:28 21,8 C 2,8 C 5,3 C 46 % 65 % 1022,2 hPa 0,0 l/m 15,1 km/h (3 Bft) W-NW 292 -0,7 C 2,1 C 36,5 km/h (5 Bft)
21.02.2020 07:26 21,8 C 2,4 C 5,3 C 46 % 65 % 1022,2 hPa 0,0 l/m 15,4 km/h (3 Bft) W-SW 247 -0,7 C 2,1 C 38,1 km/h (5 Bft)
21.02.2020 07:24 21,8 C 2,4 C 5,3 C 46 % 66 % 1022,2 hPa 0,0 l/m 15,9 km/h (3 Bft) S-SW 202 -0,5 C 2,0 C 44,2 km/h (6 Bft)
21.02.2020 07:22 21,8 C 2,3 C 5,2 C 46 % 66 % 1022,2 hPa 0,0 l/m 16,6 km/h (3 Bft) W-NW 292 -0,6 C 1,8 C 44,2 km/h (6 Bft)
21.02.2020 07:20 21,8 C 2,3 C 5,2 C 46 % 67 % 1021,4 hPa 0,0 l/m 16,9 km/h (3 Bft) NW 315 -0,4 C 1,7 C 36,9 km/h (5 Bft)
21.02.2020 07:18 21,8 C 2,3 C 5,2 C 46 % 67 % 1021,4 hPa 0,0 l/m 17,4 km/h (3 Bft) W-SW 247 -0,4 C 1,7 C 36,9 km/h (5 Bft)
21.02.2020 07:16 21,8 C 2,3 C 5,2 C 46 % 67 % 1021,4 hPa 0,0 l/m 17,2 km/h (3 Bft) W 270 -0,4 C 1,7 C 44,7 km/h (6 Bft)
21.02.2020 07:14 21,8 C 2,3 C 5,1 C 46 % 68 % 1021,4 hPa 0,0 l/m 17,9 km/h (3 Bft) S-SW 202 -0,3 C 1,5 C 44,7 km/h (6 Bft)
21.02.2020 07:12 21,8 C 2,2 C 5,0 C 46 % 68 % 1021,4 hPa 0,0 l/m 17,9 km/h (3 Bft) W-NW 292 -0,4 C 1,3 C 49,0 km/h (6 Bft)
21.02.2020 07:10 21,8 C 2,3 C 5,0 C 46 % 68 % 1021,4 hPa 0,0 l/m 18,5 km/h (3 Bft) W-SW 247 -0,4 C 1,3 C 49,0 km/h (6 Bft)
21.02.2020 07:08 21,8 C 2,2 C 5,0 C 46 % 68 % 1021,4 hPa 0,0 l/m 17,5 km/h (3 Bft) W 270 -0,4 C 1,4 C 39,6 km/h (6 Bft)
21.02.2020 07:06 21,8 C 2,3 C 5,0 C 46 % 69 % 1021,4 hPa 0,0 l/m 17,4 km/h (3 Bft) W 270 -0,2 C 1,4 C 53,1 km/h (7 Bft)
21.02.2020 07:04 21,8 C 2,4 C 5,1 C 46 % 69 % 1021,4 hPa 0,0 l/m 18,2 km/h (3 Bft) W-SW 247 -0,1 C 1,4 C 53,1 km/h (7 Bft)
21.02.2020 07:02 21,8 C 2,3 C 5,0 C 46 % 69 % 1021,4 hPa 0,0 l/m 16,1 km/h (3 Bft) W-SW 247 -0,2 C 1,6 C 36,5 km/h (5 Bft)
21.02.2020 07:00 21,8 C 2,4 C 5,0 C 46 % 69 % 1021,1 hPa 0,0 l/m 15,0 km/h (3 Bft) W-SW 247 -0,2 C 1,7 C 36,5 km/h (5 Bft)
21.02.2020 06:58 21,8 C 2,3 C 4,8 C 46 % 70 % 1021,1 hPa 0,0 l/m 14,6 km/h (3 Bft) W 270 -0,2 C 1,6 C 34,0 km/h (5 Bft)
21.02.2020 06:56 21,8 C 2,4 C 5,0 C 46 % 70 % 1021,1 hPa 0,0 l/m 14,2 km/h (3 Bft) W-NW 292 -0,0 C 1,9 C 29,5 km/h (5 Bft)
21.02.2020 06:54 21,8 C 2,4 C 5,0 C 46 % 70 % 1021,1 hPa 0,0 l/m 14,5 km/h (3 Bft) W-SW 247 -0,0 C 1,8 C 29,5 km/h (5 Bft)
21.02.2020 06:52 21,8 C 2,3 C 5,0 C 46 % 71 % 1021,1 hPa 0,0 l/m 15,3 km/h (3 Bft) N-NW 337 0,2 C 1,7 C 23,9 km/h (4 Bft)
21.02.2020 06:50 21,8 C 2,4 C 5,1 C 46 % 72 % 1021,1 hPa 0,0 l/m 16,6 km/h (3 Bft) N-NW 337 0,5 C 1,6 C 22,2 km/h (4 Bft)
21.02.2020 06:48 21,8 C 2,6 C 5,1 C 46 % 72 % 1021,1 hPa 0,0 l/m 17,1 km/h (3 Bft) W 270 0,5 C 1,6 C 19,8 km/h (3 Bft)
21.02.2020 06:46 21,8 C 2,6 C 5,1 C 46 % 72 % 1021,1 hPa 0,0 l/m 17,9 km/h (3 Bft) W 270 0,5 C 1,5 C 25,6 km/h (4 Bft)
21.02.2020 06:44 21,8 C 2,7 C 5,2 C 46 % 73 % 1021,1 hPa 0,0 l/m 17,5 km/h (3 Bft) W 270 0,8 C 1,6 C 29,0 km/h (5 Bft)
21.02.2020 06:42 21,8 C 2,9 C 5,2 C 46 % 73 % 1021,1 hPa 0,0 l/m 16,1 km/h (3 Bft) W-SW 247 0,8 C 1,8 C 29,0 km/h (5 Bft)
21.02.2020 06:40 21,8 C 2,9 C 5,2 C 46 % 73 % 1020,4 hPa 0,0 l/m 15,1 km/h (3 Bft) S-SW 202 0,8 C 2,0 C 31,1 km/h (5 Bft)
21.02.2020 06:38 21,8 C 2,9 C 5,2 C 46 % 74 % 1020,4 hPa 0,0 l/m 15,4 km/h (3 Bft) N-NW 337 1,0 C 1,9 C 35,0 km/h (5 Bft)
21.02.2020 06:36 21,8 C 3,0 C 5,2 C 46 % 74 % 1020,4 hPa 0,0 l/m 14,8 km/h (3 Bft) W 270 1,0 C 2,0 C 35,0 km/h (5 Bft)
21.02.2020 06:34 21,8 C 3,1 C 5,2 C 46 % 75 % 1020,4 hPa 0,0 l/m 15,4 km/h (3 Bft) W-SW 247 1,1 C 1,9 C 27,0 km/h (4 Bft)
21.02.2020 06:32 21,8 C 3,3 C 5,3 C 46 % 75 % 1020,4 hPa 0,0 l/m 15,0 km/h (3 Bft) W 270 1,2 C 2,1 C 28,2 km/h (4 Bft)
21.02.2020 06:30 21,8 C 3,1 C 5,2 C 46 % 75 % 1020,4 hPa 0,0 l/m 14,3 km/h (3 Bft) W 270 1,1 C 2,1 C 43,0 km/h (6 Bft)
21.02.2020 06:28 21,8 C 3,0 C 5,2 C 46 % 75 % 1020,4 hPa 0,0 l/m 12,9 km/h (3 Bft) W 270 1,1 C 2,3 C 43,0 km/h (6 Bft)
21.02.2020 06:26 21,8 C 2,7 C 5,0 C 46 % 75 % 1020,4 hPa 0,0 l/m 11,7 km/h (2 Bft) W-SW 247 0,9 C 2,3 C 31,1 km/h (5 Bft)
21.02.2020 06:24 21,8 C 2,4 C 4,8 C 46 % 76 % 1020,4 hPa 0,0 l/m 10,9 km/h (2 Bft) SO 135 0,9 C 2,2 C 30,7 km/h (5 Bft)
21.02.2020 06:22 21,8 C 2,6 C 4,8 C 46 % 76 % 1020,4 hPa 0,0 l/m 9,5 km/h (2 Bft) NW 315 0,9 C 2,5 C 15,4 km/h (3 Bft)
21.02.2020 06:20 21,8 C 2,8 C 5,0 C 46 % 76 % 1019,6 hPa 0,0 l/m 9,3 km/h (2 Bft) S-SW 202 1,1 C 2,8 C 15,9 km/h (3 Bft)
21.02.2020 06:18 21,8 C 2,8 C 4,8 C 46 % 76 % 1019,6 hPa 0,0 l/m 8,9 km/h (2 Bft) N 360 0,9 C 2,7 C 22,2 km/h (4 Bft)
21.02.2020 06:16 21,8 C 2,8 C 5,0 C 46 % 76 % 1019,6 hPa 0,0 l/m 9,3 km/h (2 Bft) W 270 1,1 C 2,8 C 22,4 km/h (4 Bft)
21.02.2020 06:14 21,8 C 2,9 C 5,0 C 46 % 76 % 1019,6 hPa 0,0 l/m 10,9 km/h (2 Bft) N-NO 22 1,1 C 2,5 C 22,4 km/h (4 Bft)
21.02.2020 06:12 21,8 C 2,8 C 5,0 C 46 % 77 % 1019,6 hPa 0,0 l/m 11,6 km/h (2 Bft) W-SW 247 1,3 C 2,3 C 23,4 km/h (4 Bft)
21.02.2020 06:10 21,8 C 2,7 C 5,0 C 46 % 77 % 1019,6 hPa 0,0 l/m 11,9 km/h (2 Bft) W 270 1,3 C 2,3 C 23,4 km/h (4 Bft)
21.02.2020 06:08 21,8 C 2,8 C 5,2 C 46 % 77 % 1019,6 hPa 0,0 l/m 12,4 km/h (3 Bft) N-NO 22 1,5 C 2,4 C 19,6 km/h (3 Bft)
21.02.2020 06:06 21,8 C 3,1 C 5,2 C 46 % 77 % 1019,6 hPa 0,0 l/m 12,6 km/h (3 Bft) SO 135 1,5 C 2,4 C 36,2 km/h (5 Bft)
21.02.2020 06:04 21,8 C 3,3 C 4,9 C 46 % 78 % 1019,6 hPa 0,0 l/m 10,6 km/h (2 Bft) W-NW 292 1,4 C 2,4 C 36,2 km/h (5 Bft)
21.02.2020 06:02 21,8 C 3,3 C 4,9 C 46 % 78 % 1019,6 hPa 0,0 l/m 9,3 km/h (2 Bft) W-SW 247 1,4 C 2,7 C 21,7 km/h (4 Bft)
21.02.2020 06:00 21,8 C 3,3 C 4,7 C 46 % 78 % 1018,9 hPa 0,0 l/m 8,7 km/h (2 Bft) W 270 1,2 C 2,6 C 15,2 km/h (3 Bft)
21.02.2020 05:58 21,8 C 3,4 C 4,7 C 46 % 78 % 1018,9 hPa 0,0 l/m 9,2 km/h (2 Bft) W 270 1,2 C 2,5 C 16,9 km/h (3 Bft)
21.02.2020 05:56 21,8 C 3,5 C 4,7 C 46 % 78 % 1018,9 hPa 0,0 l/m 8,7 km/h (2 Bft) O-SO 112 1,2 C 2,6 C 18,1 km/h (3 Bft)
21.02.2020 05:54 21,8 C 3,5 C 4,7 C 46 % 78 % 1018,9 hPa 0,0 l/m 8,0 km/h (2 Bft) W-SW 247 1,2 C 2,8 C 18,1 km/h (3 Bft)
21.02.2020 05:52 21,8 C 3,5 C 4,7 C 46 % 78 % 1018,9 hPa 0,0 l/m 7,7 km/h (2 Bft) W 270 1,2 C 2,9 C 15,9 km/h (3 Bft)
21.02.2020 05:50 21,8 C 3,6 C 4,9 C 46 % 78 % 1018,9 hPa 0,0 l/m 7,9 km/h (2 Bft) W-NW 292 1,4 C 3,0 C 22,2 km/h (4 Bft)
21.02.2020 05:48 21,8 C 3,6 C 4,7 C 46 % 78 % 1018,9 hPa 0,0 l/m 7,7 km/h (2 Bft) W 270 1,2 C 2,9 C 22,2 km/h (4 Bft)
21.02.2020 05:46 21,8 C 3,5 C 4,7 C 46 % 78 % 1018,9 hPa 0,0 l/m 6,9 km/h (2 Bft) W-SW 247 1,2 C 3,1 C 12,6 km/h (3 Bft)
21.02.2020 05:44 21,8 C 3,5 C 4,7 C 46 % 78 % 1018,9 hPa 0,0 l/m 7,6 km/h (2 Bft) W-NW 292 1,2 C 2,9 C 16,9 km/h (3 Bft)
21.02.2020 05:42 21,8 C 3,4 C 4,7 C 46 % 78 % 1018,9 hPa 0,0 l/m 7,9 km/h (2 Bft) W 270 1,2 C 2,8 C 16,9 km/h (3 Bft)
21.02.2020 05:40 21,8 C 3,3 C 4,6 C 46 % 78 % 1018,5 hPa 0,0 l/m 7,9 km/h (2 Bft) W-NW 292 1,1 C 2,7 C 16,2 km/h (3 Bft)
21.02.2020 05:38 21,8 C 3,4 C 4,6 C 46 % 78 % 1018,5 hPa 0,0 l/m 8,4 km/h (2 Bft) W-NW 292 1,1 C 2,6 C 15,7 km/h (3 Bft)
21.02.2020 05:36 21,8 C 3,5 C 4,6 C 46 % 78 % 1018,5 hPa 0,0 l/m 9,3 km/h (2 Bft) NW 315 1,1 C 2,3 C 20,8 km/h (4 Bft)
21.02.2020 05:34 21,8 C 3,5 C 4,6 C 46 % 78 % 1018,5 hPa 0,0 l/m 10,3 km/h (2 Bft) W-NW 292 1,1 C 2,1 C 20,8 km/h (4 Bft)
21.02.2020 05:32 21,8 C 3,5 C 4,6 C 46 % 78 % 1018,5 hPa 0,0 l/m 11,6 km/h (2 Bft) W-SW 247 1,1 C 1,8 C 22,4 km/h (4 Bft)
21.02.2020 05:30 21,8 C 3,5 C 4,6 C 46 % 78 % 1018,5 hPa 0,0 l/m 11,6 km/h (2 Bft) W 270 1,1 C 1,8 C 22,4 km/h (4 Bft)
21.02.2020 05:28 21,8 C 3,5 C 4,6 C 46 % 78 % 1018,5 hPa 0,1 l/m 11,6 km/h (2 Bft) S 180 1,1 C 1,8 C 22,7 km/h (4 Bft)
21.02.2020 05:26 21,8 C 3,5 C 4,6 C 46 % 78 % 1018,5 hPa 0,0 l/m 10,9 km/h (2 Bft) W-NW 292 1,1 C 2,0 C 27,5 km/h (4 Bft)
21.02.2020 05:24 21,8 C 3,5 C 4,5 C 46 % 78 % 1018,5 hPa 0,0 l/m 10,6 km/h (2 Bft) W 270 1,0 C 1,9 C 27,5 km/h (4 Bft)
21.02.2020 05:22 21,8 C 3,4 C 4,5 C 46 % 78 % 1018,5 hPa 0,0 l/m 10,0 km/h (2 Bft) W-SW 247 1,0 C 2,1 C 17,9 km/h (3 Bft)
21.02.2020 05:20 21,8 C 3,4 C 4,5 C 46 % 78 % 1018,6 hPa 0,0 l/m 10,6 km/h (2 Bft) W 270 1,0 C 1,9 C 29,9 km/h (5 Bft)
21.02.2020 05:18 21,8 C 3,4 C 4,4 C 46 % 78 % 1018,6 hPa 0,0 l/m 12,2 km/h (2 Bft) W-NW 292 0,9 C 1,5 C 29,9 km/h (5 Bft)
21.02.2020 05:16 21,8 C 3,4 C 4,5 C 46 % 78 % 1018,6 hPa 0,0 l/m 12,7 km/h (3 Bft) N-NW 337 1,0 C 1,5 C 18,6 km/h (3 Bft)
21.02.2020 05:14 21,8 C 3,3 C 4,3 C 46 % 78 % 1018,6 hPa 0,0 l/m 13,8 km/h (3 Bft) W 270 0,8 C 1,1 C 21,0 km/h (4 Bft)
21.02.2020 05:12 21,8 C 3,4 C 4,3 C 46 % 78 % 1018,6 hPa 0,0 l/m 15,0 km/h (3 Bft) W-SW 247 0,8 C 0,9 C 21,0 km/h (4 Bft)
21.02.2020 05:10 21,8 C 3,3 C 4,2 C 46 % 78 % 1018,6 hPa 0,0 l/m 15,3 km/h (3 Bft) W-NW 292 0,7 C 0,7 C 49,5 km/h (6 Bft)
21.02.2020 05:08 21,8 C 3,3 C 4,1 C 46 % 78 % 1018,6 hPa 0,0 l/m 15,0 km/h (3 Bft) W 270 0,6 C 0,6 C 49,5 km/h (6 Bft)
21.02.2020 05:06 21,8 C 3,2 C 3,6 C 46 % 78 % 1018,6 hPa 0,1 l/m 15,0 km/h (3 Bft) W-NW 292 0,1 C 0,0 C 64,0 km/h (8 Bft)
21.02.2020 05:02 21,8 C 3,0 C 3,4 C 46 % 78 % 1018,6 hPa 0,0 l/m 14,6 km/h (3 Bft) S-SW 202 -0,1 C -0,2 C 20,5 km/h (4 Bft)
21.02.2020 05:00 21,8 C 2,6 C 3,4 C 46 % 78 % 1018,0 hPa 0,0 l/m 14,2 km/h (3 Bft) NW 315 -0,1 C -0,1 C 33,8 km/h (5 Bft)
21.02.2020 04:58 21,8 C 2,7 C 3,1 C 46 % 78 % 1018,0 hPa 0,1 l/m 13,2 km/h (3 Bft) W-SW 247 -0,4 C -0,3 C 26,8 km/h (4 Bft)
21.02.2020 04:56 21,8 C 2,3 C 2,6 C 46 % 78 % 1018,0 hPa 0,0 l/m 11,3 km/h (2 Bft) W 270 -0,8 C -0,5 C 56,7 km/h (7 Bft)
21.02.2020 04:54 21,8 C 1,7 C 1,9 C 46 % 78 % 1018,0 hPa 0,3 l/m 8,5 km/h (2 Bft) S-SW 202 -1,5 C -0,7 C 27,0 km/h (4 Bft)
21.02.2020 04:52 21,8 C 1,4 C 1,0 C 46 % 77 % 1018,0 hPa 0,3 l/m 6,3 km/h (2 Bft) NW 315 -2,6 C -1,0 C 24,4 km/h (4 Bft)
21.02.2020 04:50 21,8 C 1,2 C 1,0 C 46 % 77 % 1018,0 hPa 0,0 l/m 4,8 km/h (1 Bft) SW 225 -2,6 C -0,4 C 24,4 km/h (4 Bft)
21.02.2020 04:48 21,8 C 1,1 C 0,5 C 46 % 77 % 1018,0 hPa 0,4 l/m 3,2 km/h (1 Bft) N 360 -3,1 C 0,5 C 6,3 km/h (2 Bft)
21.02.2020 04:46 21,8 C 1,1 C 0,5 C 46 % 77 % 1018,0 hPa 0,1 l/m 3,2 km/h (1 Bft) N-NW 337 -3,1 C 0,5 C 6,3 km/h (2 Bft)
21.02.2020 04:44 21,8 C 1,2 C 0,5 C 46 % 77 % 1018,0 hPa 0,0 l/m 3,7 km/h (1 Bft) NW 315 -3,1 C 0,5 C 5,6 km/h (1 Bft)
21.02.2020 04:42 21,8 C 1,1 C 0,5 C 46 % 77 % 1018,0 hPa 0,0 l/m 4,5 km/h (1 Bft) W-SW 247 -3,1 C 0,5 C 5,6 km/h (1 Bft)
21.02.2020 04:40 21,8 C 1,1 C 0,5 C 46 % 77 % 1017,4 hPa 0,0 l/m 4,5 km/h (1 Bft) S-SO 157 -3,1 C 0,5 C 10,4 km/h (2 Bft)
21.02.2020 04:38 21,8 C 1,1 C 0,4 C 46 % 77 % 1017,4 hPa 0,0 l/m 4,2 km/h (1 Bft) O-SO 112 -3,1 C 0,4 C 10,4 km/h (2 Bft)
21.02.2020 04:36 21,8 C 1,1 C 0,4 C 46 % 77 % 1017,4 hPa 0,0 l/m 3,4 km/h (1 Bft) NO 45 -3,1 C 0,4 C 16,9 km/h (3 Bft)
21.02.2020 04:34 21,8 C 1,1 C 0,3 C 46 % 77 % 1017,4 hPa 0,0 l/m 2,9 km/h (1 Bft) N 360 -3,2 C 0,3 C 16,9 km/h (3 Bft)
21.02.2020 04:32 21,8 C 1,2 C 0,1 C 46 % 77 % 1017,4 hPa 0,0 l/m 1,1 km/h (1 Bft) N-NW 337 -3,4 C 0,1 C 12,3 km/h (3 Bft)
21.02.2020 04:30 21,8 C 1,2 C 0,1 C 46 % 77 % 1017,4 hPa 0,1 l/m 0,3 km/h (0 Bft) W 270 -3,4 C 0,1 C 4,1 km/h (1 Bft)
21.02.2020 04:28 21,8 C 1,2 C 0,1 C 46 % 77 % 1017,4 hPa 0,0 l/m 0,3 km/h (0 Bft) W 270 -3,4 C 0,1 C 0,0 km/h (0 Bft)
21.02.2020 04:26 21,8 C 1,2 C 0,1 C 46 % 77 % 1017,4 hPa 0,0 l/m 1,0 km/h (0 Bft) W 270 -3,4 C 0,1 C 3,1 km/h (1 Bft)
21.02.2020 04:24 21,8 C 1,2 C 0,3 C 46 % 77 % 1017,4 hPa 0,0 l/m 1,0 km/h (0 Bft) W 270 -3,2 C 0,3 C 3,1 km/h (1 Bft)
21.02.2020 04:22 21,8 C 1,1 C 0,3 C 46 % 77 % 1017,4 hPa 0,1 l/m 1,0 km/h (0 Bft) SO 135 -3,2 C 0,3 C 0,0 km/h (0 Bft)
21.02.2020 04:20 21,8 C 1,1 C 0,3 C 46 % 77 % 1018,1 hPa 0,0 l/m 0,8 km/h (0 Bft) SO 135 -3,2 C 0,3 C 3,9 km/h (1 Bft)
21.02.2020 04:18 21,8 C 1,1 C 0,3 C 46 % 77 % 1018,1 hPa 0,0 l/m 1,0 km/h (0 Bft) S-SO 157 -3,2 C 0,3 C 5,6 km/h (1 Bft)
21.02.2020 04:16 21,8 C 1,2 C 0,3 C 46 % 77 % 1018,1 hPa 0,0 l/m 0,6 km/h (0 Bft) S-SO 157 -3,2 C 0,3 C 5,6 km/h (1 Bft)
21.02.2020 04:14 21,8 C 1,1 C 0,3 C 46 % 77 % 1018,1 hPa 0,0 l/m 0,3 km/h (0 Bft) S-SW 202 -3,2 C 0,3 C 3,1 km/h (1 Bft)
21.02.2020 04:12 21,8 C 1,1 C 0,3 C 46 % 77 % 1018,1 hPa 0,0 l/m 0,3 km/h (0 Bft) SO 135 -3,2 C 0,3 C 2,9 km/h (1 Bft)
21.02.2020 04:10 21,8 C 1,1 C 0,3 C 46 % 77 % 1018,1 hPa 0,0 l/m 0,3 km/h (0 Bft) SO 135 -3,2 C 0,3 C 0,0 km/h (0 Bft)
21.02.2020 04:08 21,8 C 1,1 C 0,3 C 46 % 77 % 1018,1 hPa 0,0 l/m 0,3 km/h (0 Bft) S 180 -3,2 C 0,3 C 2,4 km/h (1 Bft)
21.02.2020 04:06 21,8 C 1,2 C 0,3 C 46 % 77 % 1018,1 hPa 0,1 l/m 0,2 km/h (0 Bft) SO 135 -3,2 C 0,3 C 2,4 km/h (1 Bft)
21.02.2020 04:04 21,8 C 1,2 C 0,3 C 46 % 77 % 1018,1 hPa 0,0 l/m 0,0 km/h (0 Bft) SO 135 -3,2 C 0,3 C 0,0 km/h (0 Bft)
21.02.2020 04:02 21,8 C 1,1 C 0,3 C 46 % 77 % 1018,1 hPa 0,1 l/m 0,0 km/h (0 Bft) SO 135 -3,2 C 0,3 C 0,0 km/h (0 Bft)
21.02.2020 04:00 21,8 C 1,2 C 0,1 C 46 % 77 % 1018,4 hPa 0,1 l/m 0,0 km/h (0 Bft) O-NO 67 -3,4 C 0,1 C 0,0 km/h (0 Bft)
21.02.2020 03:58 21,8 C 1,2 C 0,1 C 46 % 77 % 1018,4 hPa 0,0 l/m 0,3 km/h (0 Bft) O-NO 67 -3,4 C 0,1 C 0,0 km/h (0 Bft)
21.02.2020 03:56 21,8 C 1,2 C 0,1 C 46 % 77 % 1018,4 hPa 0,0 l/m 0,3 km/h (0 Bft) O-NO 67 -3,4 C 0,1 C 0,0 km/h (0 Bft)
21.02.2020 03:54 21,8 C 1,2 C 0,1 C 46 % 77 % 1018,4 hPa 0,1 l/m 0,3 km/h (0 Bft) O-NO 67 -3,4 C 0,1 C 0,0 km/h (0 Bft)
21.02.2020 03:52 21,8 C 1,1 C 0,1 C 46 % 77 % 1018,4 hPa 0,0 l/m 0,3 km/h (0 Bft) O-NO 67 -3,4 C 0,1 C 0,0 km/h (0 Bft)
21.02.2020 03:50 21,8 C 1,1 C 0,1 C 46 % 77 % 1018,4 hPa 0,0 l/m 0,3 km/h (0 Bft) O-NO 67 -3,4 C 0,1 C 3,4 km/h (1 Bft)
21.02.2020 03:48 21,8 C 1,1 C 0,1 C 46 % 77 % 1018,4 hPa 0,1 l/m 0,0 km/h (0 Bft) O-NO 67 -3,4 C 0,1 C 3,4 km/h (1 Bft)
21.02.2020 03:46 21,8 C 1,1 C 0,1 C 46 % 77 % 1018,4 hPa 0,0 l/m 0,2 km/h (0 Bft) O-NO 67 -3,4 C 0,1 C 0,0 km/h (0 Bft)
21.02.2020 03:44 21,8 C 1,1 C 0,0 C 46 % 77 % 1018,4 hPa 0,0 l/m 0,5 km/h (0 Bft) O-NO 67 -3,5 C 0,0 C 0,0 km/h (0 Bft)
21.02.2020 03:42 21,8 C 1,0 C 0,0 C 46 % 77 % 1018,4 hPa 0,1 l/m 0,5 km/h (0 Bft) O-NO 67 -3,5 C 0,0 C 0,0 km/h (0 Bft)
21.02.2020 03:40 21,8 C 1,1 C 0,1 C 46 % 76 % 1018,1 hPa 0,0 l/m 0,5 km/h (0 Bft) O-NO 67 -3,6 C 0,1 C 0,0 km/h (0 Bft)
21.02.2020 03:38 21,8 C 1,1 C 0,1 C 46 % 76 % 1018,1 hPa 0,0 l/m 0,5 km/h (0 Bft) O-NO 67 -3,6 C 0,1 C 3,6 km/h (1 Bft)
21.02.2020 03:36 21,8 C 1,0 C 0,1 C 46 % 76 % 1018,1 hPa 0,0 l/m 1,0 km/h (0 Bft) O-NO 67 -3,6 C 0,1 C 3,6 km/h (1 Bft)
21.02.2020 03:34 21,9 C 1,0 C 0,1 C 46 % 76 % 1018,1 hPa 0,0 l/m 1,0 km/h (0 Bft) SO 135 -3,6 C 0,1 C 3,1 km/h (1 Bft)
21.02.2020 03:32 21,9 C 1,0 C -0,1 C 46 % 76 % 1018,1 hPa 0,0 l/m 1,3 km/h (1 Bft) SO 135 -3,8 C -0,1 C 2,4 km/h (1 Bft)
21.02.2020 03:30 21,9 C 1,0 C 0,1 C 46 % 76 % 1018,1 hPa 0,0 l/m 1,6 km/h (1 Bft) SO 135 -3,6 C 0,1 C 2,9 km/h (1 Bft)
21.02.2020 03:28 21,9 C 1,0 C -0,1 C 46 % 76 % 1018,1 hPa 0,0 l/m 1,6 km/h (1 Bft) SO 135 -3,8 C -0,1 C 4,3 km/h (1 Bft)
21.02.2020 03:26 21,8 C 1,0 C -0,1 C 46 % 76 % 1018,1 hPa 0,0 l/m 1,4 km/h (1 Bft) S-SO 157 -3,8 C -0,1 C 4,3 km/h (1 Bft)
21.02.2020 03:24 21,9 C 1,0 C -0,1 C 46 % 76 % 1018,1 hPa 0,0 l/m 1,4 km/h (1 Bft) S-SO 157 -3,8 C -0,1 C 4,3 km/h (1 Bft)
21.02.2020 03:22 21,9 C 1,0 C -0,1 C 46 % 76 % 1018,1 hPa 0,0 l/m 1,3 km/h (1 Bft) S-SW 202 -3,8 C -0,1 C 4,3 km/h (1 Bft)
21.02.2020 03:20 21,9 C 1,0 C -0,1 C 46 % 76 % 1017,9 hPa 0,0 l/m 0,8 km/h (0 Bft) S-SW 202 -3,8 C -0,1 C 4,1 km/h (1 Bft)
21.02.2020 03:18 21,9 C 1,0 C -0,2 C 46 % 76 % 1017,9 hPa 0,0 l/m 0,8 km/h (0 Bft) SO 135 -3,9 C -0,2 C 0,0 km/h (0 Bft)
21.02.2020 03:16 21,9 C 0,9 C -0,2 C 46 % 76 % 1017,9 hPa 0,0 l/m 0,8 km/h (0 Bft) SO 135 -3,9 C -0,2 C 4,8 km/h (1 Bft)
21.02.2020 03:14 21,9 C 1,0 C -0,2 C 46 % 76 % 1017,9 hPa 0,0 l/m 1,3 km/h (1 Bft) NO 45 -3,9 C -0,2 C 4,8 km/h (1 Bft)
21.02.2020 03:12 21,9 C 0,9 C -0,5 C 46 % 76 % 1017,9 hPa 0,0 l/m 0,6 km/h (0 Bft) S-SO 157 -4,2 C -0,5 C 3,1 km/h (1 Bft)
21.02.2020 03:10 21,9 C 0,8 C -0,5 C 46 % 76 % 1017,9 hPa 0,0 l/m 0,6 km/h (0 Bft) S-SO 157 -4,2 C -0,5 C 3,1 km/h (1 Bft)
21.02.2020 03:08 21,9 C 0,8 C -0,5 C 46 % 76 % 1017,9 hPa 0,0 l/m 0,6 km/h (0 Bft) S-SO 157 -4,2 C -0,5 C 3,1 km/h (1 Bft)
21.02.2020 03:06 21,9 C 0,8 C -0,5 C 46 % 76 % 1017,9 hPa 0,0 l/m 0,6 km/h (0 Bft) S-SO 157 -4,2 C -0,5 C 3,1 km/h (1 Bft)
21.02.2020 03:04 21,9 C 0,8 C -0,5 C 46 % 76 % 1017,9 hPa 0,0 l/m 0,6 km/h (0 Bft) S-SO 157 -4,2 C -0,5 C 3,1 km/h (1 Bft)
21.02.2020 03:02 21,9 C 0,8 C -0,5 C 46 % 76 % 1017,9 hPa 0,0 l/m 0,6 km/h (0 Bft) S-SO 157 -4,2 C -0,5 C 3,1 km/h (1 Bft)
21.02.2020 03:00 21,9 C 0,8 C -0,5 C 46 % 76 % 1017,8 hPa 0,0 l/m 0,6 km/h (0 Bft) SO 135 -4,2 C -0,5 C 3,4 km/h (1 Bft)
21.02.2020 02:58 21,9 C 0,7 C -0,5 C 46 % 76 % 1017,8 hPa 0,0 l/m 0,6 km/h (0 Bft) S-SW 202 -4,2 C -0,5 C 3,4 km/h (1 Bft)
21.02.2020 02:56 21,9 C 0,7 C -0,6 C 46 % 76 % 1017,8 hPa 0,0 l/m 1,6 km/h (1 Bft) S-SW 202 -4,3 C -0,6 C 2,9 km/h (1 Bft)
21.02.2020 02:54 21,9 C 0,7 C -0,6 C 46 % 76 % 1017,8 hPa 0,0 l/m 2,1 km/h (1 Bft) S 180 -4,3 C -0,6 C 2,9 km/h (1 Bft)
21.02.2020 02:52 21,9 C 0,7 C -0,6 C 46 % 76 % 1017,8 hPa 0,0 l/m 2,6 km/h (1 Bft) S 180 -4,3 C -0,6 C 2,9 km/h (1 Bft)
21.02.2020 02:50 21,9 C 0,7 C -0,6 C 46 % 76 % 1017,8 hPa 0,0 l/m 2,6 km/h (1 Bft) W 270 -4,3 C -0,6 C 3,6 km/h (1 Bft)
21.02.2020 02:48 21,9 C 0,7 C -0,6 C 46 % 76 % 1017,8 hPa 0,0 l/m 2,7 km/h (1 Bft) N-NO 22 -4,3 C -0,6 C 9,2 km/h (2 Bft)
21.02.2020 02:46 21,9 C 0,6 C -0,6 C 46 % 76 % 1017,8 hPa 0,0 l/m 1,9 km/h (1 Bft) NW 315 -4,3 C -0,6 C 10,6 km/h (2 Bft)
21.02.2020 02:44 21,9 C 0,6 C -0,7 C 46 % 76 % 1017,8 hPa 0,0 l/m 1,6 km/h (1 Bft) N-NW 337 -4,4 C -0,7 C 10,6 km/h (2 Bft)
21.02.2020 02:42 21,9 C 0,6 C -0,7 C 46 % 76 % 1017,8 hPa 0,0 l/m 1,4 km/h (1 Bft) S-SW 202 -4,4 C -0,7 C 4,8 km/h (1 Bft)
21.02.2020 02:40 21,9 C 0,6 C -0,7 C 46 % 76 % 1017,8 hPa 0,0 l/m 1,3 km/h (1 Bft) W-NW 292 -4,4 C -0,7 C 4,8 km/h (1 Bft)
21.02.2020 02:38 21,9 C 0,6 C -0,9 C 46 % 76 % 1017,8 hPa 0,0 l/m 1,0 km/h (0 Bft) N-NO 22 -4,6 C -0,9 C 0,0 km/h (0 Bft)
21.02.2020 02:36 21,9 C 0,6 C -0,9 C 46 % 76 % 1017,8 hPa 0,0 l/m 1,0 km/h (0 Bft) N-NO 22 -4,6 C -0,9 C 5,3 km/h (1 Bft)
21.02.2020 02:34 21,9 C 0,6 C -0,9 C 46 % 76 % 1017,8 hPa 0,0 l/m 0,6 km/h (0 Bft) NW 315 -4,6 C -0,9 C 5,3 km/h (1 Bft)
21.02.2020 02:32 21,9 C 0,6 C -1,0 C 46 % 76 % 1017,8 hPa 0,0 l/m 0,2 km/h (0 Bft) N-NW 337 -4,7 C -1,0 C 4,1 km/h (1 Bft)
21.02.2020 02:30 21,9 C 0,3 C -1,0 C 46 % 75 % 1017,8 hPa 0,0 l/m 0,0 km/h (0 Bft) O 90 -4,9 C -1,0 C 0,0 km/h (0 Bft)
21.02.2020 02:28 21,9 C 0,3 C -1,0 C 46 % 75 % 1017,8 hPa 0,0 l/m 0,0 km/h (0 Bft) O 90 -4,9 C -1,0 C 0,0 km/h (0 Bft)
21.02.2020 02:26 21,9 C 0,2 C -1,1 C 46 % 75 % 1017,8 hPa 0,0 l/m 0,2 km/h (0 Bft) O 90 -5,0 C -1,1 C 0,0 km/h (0 Bft)
21.02.2020 02:24 21,9 C 0,1 C -1,1 C 46 % 75 % 1017,8 hPa 0,0 l/m 0,3 km/h (0 Bft) O-NO 67 -5,0 C -1,1 C 0,0 km/h (0 Bft)
21.02.2020 02:22 21,9 C 0,1 C -1,1 C 46 % 75 % 1017,8 hPa 0,0 l/m 0,3 km/h (0 Bft) O-NO 67 -5,0 C -1,1 C 0,0 km/h (0 Bft)
21.02.2020 02:20 21,9 C 0,0 C -1,1 C 46 % 75 % 1017,9 hPa 0,0 l/m 0,3 km/h (0 Bft) O-NO 67 -5,0 C -1,1 C 0,0 km/h (0 Bft)
21.02.2020 02:18 21,9 C 0,0 C -1,1 C 46 % 75 % 1017,9 hPa 0,0 l/m 0,5 km/h (0 Bft) O 90 -5,0 C -1,1 C 3,1 km/h (1 Bft)
21.02.2020 02:16 21,9 C 0,1 C -1,0 C 46 % 75 % 1017,9 hPa 0,0 l/m 0,5 km/h (0 Bft) O 90 -4,9 C -1,0 C 3,1 km/h (1 Bft)
21.02.2020 02:14 21,9 C 0,2 C -1,1 C 46 % 75 % 1017,9 hPa 0,0 l/m 0,5 km/h (0 Bft) O 90 -5,0 C -1,1 C 2,7 km/h (1 Bft)
21.02.2020 02:12 21,9 C 0,2 C -1,1 C 46 % 75 % 1017,9 hPa 0,0 l/m 1,0 km/h (0 Bft) O-NO 67 -5,0 C -1,1 C 2,7 km/h (1 Bft)
21.02.2020 02:10 21,9 C 0,1 C -1,1 C 46 % 75 % 1017,9 hPa 0,0 l/m 1,3 km/h (1 Bft) S-SO 157 -5,0 C -1,1 C 0,0 km/h (0 Bft)
21.02.2020 02:08 21,9 C 0,1 C -1,3 C 46 % 75 % 1017,9 hPa 0,0 l/m 1,1 km/h (1 Bft) S-SO 157 -5,1 C -1,3 C 0,0 km/h (0 Bft)
21.02.2020 02:06 21,9 C 0,1 C -1,3 C 46 % 75 % 1017,9 hPa 0,0 l/m 1,4 km/h (1 Bft) S-SO 157 -5,1 C -1,3 C 3,1 km/h (1 Bft)
21.02.2020 02:04 22,0 C 0,0 C -1,3 C 46 % 75 % 1017,9 hPa 0,0 l/m 1,4 km/h (1 Bft) SO 135 -5,1 C -1,3 C 3,4 km/h (1 Bft)
21.02.2020 02:02 21,9 C 0,0 C -1,4 C 46 % 75 % 1017,9 hPa 0,0 l/m 1,8 km/h (1 Bft) O 90 -5,2 C -1,4 C 3,6 km/h (1 Bft)
21.02.2020 02:00 21,9 C -0,1 C -1,4 C 46 % 75 % 1017,8 hPa 0,0 l/m 2,3 km/h (1 Bft) S-SO 157 -5,2 C -1,4 C 3,6 km/h (1 Bft)
21.02.2020 01:58 21,9 C -0,1 C -1,3 C 46 % 75 % 1017,8 hPa 0,0 l/m 2,7 km/h (1 Bft) O 90 -5,1 C -1,3 C 3,6 km/h (1 Bft)
21.02.2020 01:56 21,9 C -0,4 C -1,1 C 46 % 75 % 1017,8 hPa 0,0 l/m 3,5 km/h (1 Bft) O 90 -5,0 C -1,1 C 9,7 km/h (2 Bft)
21.02.2020 01:54 22,0 C -0,4 C -1,0 C 46 % 75 % 1017,8 hPa 0,0 l/m 3,5 km/h (1 Bft) O-SO 112 -4,9 C -1,0 C 9,7 km/h (2 Bft)
21.02.2020 01:52 21,9 C -0,6 C -1,1 C 46 % 75 % 1017,8 hPa 0,0 l/m 4,0 km/h (1 Bft) NW 315 -5,0 C -1,1 C 9,7 km/h (2 Bft)
21.02.2020 01:50 21,9 C -1,2 C -1,3 C 46 % 75 % 1017,8 hPa 0,0 l/m 3,5 km/h (1 Bft) N-NW 337 -5,1 C -1,3 C 8,0 km/h (2 Bft)
21.02.2020 01:48 22,0 C -1,4 C -1,4 C 46 % 75 % 1017,8 hPa 0,0 l/m 3,5 km/h (1 Bft) NW 315 -5,2 C -1,4 C 7,2 km/h (2 Bft)
21.02.2020 01:46 21,9 C -1,6 C -1,5 C 46 % 75 % 1017,8 hPa 0,0 l/m 3,1 km/h (1 Bft) NW 315 -5,3 C -1,5 C 7,7 km/h (2 Bft)
21.02.2020 01:44 22,0 C -1,7 C -1,6 C 46 % 75 % 1017,8 hPa 0,0 l/m 2,6 km/h (1 Bft) N-NW 337 -5,4 C -1,6 C 7,7 km/h (2 Bft)
21.02.2020 01:42 22,0 C -1,7 C -1,6 C 46 % 75 % 1017,8 hPa 0,0 l/m 2,3 km/h (1 Bft) N-NW 337 -5,4 C -1,6 C 5,1 km/h (1 Bft)
21.02.2020 01:40 22,0 C -1,8 C -1,9 C 46 % 74 % 1017,9 hPa 0,0 l/m 2,4 km/h (1 Bft) N-NW 337 -5,9 C -1,9 C 6,5 km/h (2 Bft)
21.02.2020 01:38 22,0 C -1,8 C -2,0 C 46 % 74 % 1017,9 hPa 0,0 l/m 2,1 km/h (1 Bft) NW 315 -6,0 C -2,0 C 6,5 km/h (2 Bft)
21.02.2020 01:36 22,0 C -1,8 C -2,0 C 46 % 74 % 1017,9 hPa 0,0 l/m 1,4 km/h (1 Bft) N-NW 337 -6,0 C -2,0 C 4,8 km/h (1 Bft)
21.02.2020 01:34 22,0 C -1,8 C -2,0 C 46 % 74 % 1017,9 hPa 0,0 l/m 1,0 km/h (0 Bft) N-NW 337 -6,0 C -2,0 C 2,9 km/h (1 Bft)
21.02.2020 01:32 22,0 C -1,8 C -2,0 C 46 % 74 % 1017,9 hPa 0,0 l/m 1,1 km/h (1 Bft) N-NW 337 -6,0 C -2,0 C 5,3 km/h (1 Bft)
21.02.2020 01:30 22,0 C -1,8 C -2,0 C 46 % 74 % 1017,9 hPa 0,0 l/m 1,1 km/h (1 Bft) NW 315 -6,0 C -2,0 C 5,3 km/h (1 Bft)
21.02.2020 01:28 22,0 C -1,8 C -2,0 C 46 % 74 % 1017,9 hPa 0,0 l/m 1,1 km/h (1 Bft) NO 45 -6,0 C -2,0 C 0,0 km/h (0 Bft)
21.02.2020 01:26 22,0 C -1,7 C -2,0 C 46 % 74 % 1017,9 hPa 0,0 l/m 1,1 km/h (1 Bft) NO 45 -6,0 C -2,0 C 6,0 km/h (2 Bft)
21.02.2020 01:24 22,0 C -1,7 C -1,9 C 46 % 74 % 1017,9 hPa 0,0 l/m 1,4 km/h (1 Bft) NO 45 -5,9 C -1,9 C 3,1 km/h (1 Bft)
21.02.2020 01:22 22,0 C -1,6 C -1,9 C 46 % 74 % 1017,9 hPa 0,0 l/m 1,6 km/h (1 Bft) NO 45 -5,9 C -1,9 C 5,8 km/h (2 Bft)
21.02.2020 01:20 22,0 C -1,6 C -1,9 C 46 % 74 % 1018,4 hPa 0,0 l/m 1,6 km/h (1 Bft) O-NO 67 -5,9 C -1,9 C 5,8 km/h (2 Bft)
21.02.2020 01:18 22,0 C -1,6 C -1,8 C 46 % 74 % 1018,4 hPa 0,0 l/m 1,1 km/h (1 Bft) O-NO 67 -5,8 C -1,8 C 4,6 km/h (1 Bft)
21.02.2020 01:16 22,0 C -1,4 C -1,8 C 47 % 74 % 1018,4 hPa 0,0 l/m 0,8 km/h (0 Bft) NO 45 -5,8 C -1,8 C 3,1 km/h (1 Bft)
21.02.2020 01:14 22,0 C -1,6 C -1,9 C 46 % 74 % 1018,4 hPa 0,0 l/m 0,8 km/h (0 Bft) O-NO 67 -5,9 C -1,9 C 3,1 km/h (1 Bft)
21.02.2020 01:12 22,0 C -1,7 C -1,9 C 46 % 74 % 1018,4 hPa 0,0 l/m 0,8 km/h (0 Bft) O-NO 67 -5,9 C -1,9 C 3,9 km/h (1 Bft)
21.02.2020 01:10 22,0 C -1,7 C -2,0 C 47 % 74 % 1018,4 hPa 0,0 l/m 0,8 km/h (0 Bft) S-SW 202 -6,0 C -2,0 C 3,9 km/h (1 Bft)
21.02.2020 01:08 22,0 C -1,7 C -1,9 C 47 % 74 % 1018,4 hPa 0,0 l/m 1,0 km/h (0 Bft) NO 45 -5,9 C -1,9 C 2,7 km/h (1 Bft)
21.02.2020 01:06 22,0 C -1,7 C -1,8 C 47 % 74 % 1018,4 hPa 0,0 l/m 1,0 km/h (0 Bft) NO 45 -5,8 C -1,8 C 5,1 km/h (1 Bft)
21.02.2020 01:04 22,0 C -1,7 C -1,9 C 47 % 74 % 1018,4 hPa 0,0 l/m 1,0 km/h (0 Bft) N-NW 337 -5,9 C -1,9 C 3,6 km/h (1 Bft)
21.02.2020 01:02 22,0 C -1,7 C -1,9 C 47 % 74 % 1018,4 hPa 0,0 l/m 0,8 km/h (0 Bft) N-NW 337 -5,9 C -1,9 C 3,6 km/h (1 Bft)
21.02.2020 01:00 22,0 C -1,8 C -1,9 C 47 % 74 % 1018,4 hPa 0,0 l/m 0,5 km/h (0 Bft) N-NW 337 -5,9 C -1,9 C 4,8 km/h (1 Bft)
21.02.2020 00:58 22,0 C -1,8 C -2,0 C 47 % 74 % 1018,4 hPa 0,0 l/m 0,2 km/h (0 Bft) N-NW 337 -6,0 C -2,0 C 4,8 km/h (1 Bft)
21.02.2020 00:56 22,0 C -1,8 C -2,0 C 47 % 74 % 1018,4 hPa 0,0 l/m 0,2 km/h (0 Bft) S 180 -6,0 C -2,0 C 0,0 km/h (0 Bft)
21.02.2020 00:54 22,0 C -1,7 C -1,9 C 47 % 74 % 1018,4 hPa 0,0 l/m 0,2 km/h (0 Bft) S-SO 157 -5,9 C -1,9 C 0,0 km/h (0 Bft)
21.02.2020 00:52 22,0 C -1,8 C -1,9 C 47 % 74 % 1018,4 hPa 0,0 l/m 0,2 km/h (0 Bft) O-SO 112 -5,9 C -1,9 C 0,0 km/h (0 Bft)
21.02.2020 00:50 22,0 C -1,7 C -1,8 C 47 % 74 % 1018,4 hPa 0,0 l/m 0,2 km/h (0 Bft) O-SO 112 -5,8 C -1,8 C 0,0 km/h (0 Bft)
21.02.2020 00:48 22,0 C -1,6 C -1,8 C 47 % 74 % 1018,4 hPa 0,0 l/m 0,2 km/h (0 Bft) N-NO 22 -5,8 C -1,8 C 3,4 km/h (1 Bft)
21.02.2020 00:46 22,0 C -1,6 C -1,8 C 47 % 74 % 1018,4 hPa 0,0 l/m 0,5 km/h (0 Bft) N-NO 22 -5,8 C -1,8 C 3,4 km/h (1 Bft)
21.02.2020 00:44 22,0 C -1,7 C -1,8 C 47 % 74 % 1018,4 hPa 0,0 l/m 0,6 km/h (0 Bft) W 270 -5,8 C -1,8 C 0,0 km/h (0 Bft)
21.02.2020 00:42 22,0 C -1,7 C -1,6 C 47 % 74 % 1018,4 hPa 0,0 l/m 0,6 km/h (0 Bft) W 270 -5,6 C -1,6 C 0,0 km/h (0 Bft)
21.02.2020 00:40 22,0 C -1,7 C -1,6 C 47 % 74 % 1018,8 hPa 0,0 l/m 1,0 km/h (0 Bft) W 270 -5,6 C -1,6 C 0,0 km/h (0 Bft)
21.02.2020 00:38 22,0 C -1,7 C -1,6 C 47 % 74 % 1018,8 hPa 0,0 l/m 1,0 km/h (0 Bft) N-NO 22 -5,6 C -1,6 C 3,1 km/h (1 Bft)
21.02.2020 00:36 22,1 C -1,7 C -1,6 C 47 % 74 % 1018,8 hPa 0,0 l/m 0,8 km/h (0 Bft) N-NO 22 -5,6 C -1,6 C 4,8 km/h (1 Bft)
21.02.2020 00:34 22,1 C -1,7 C -1,6 C 47 % 73 % 1018,8 hPa 0,0 l/m 0,5 km/h (0 Bft) S-SW 202 -5,8 C -1,6 C 0,0 km/h (0 Bft)
21.02.2020 00:32 22,1 C -1,7 C -1,6 C 47 % 73 % 1018,8 hPa 0,0 l/m 0,5 km/h (0 Bft) N-NO 22 -5,8 C -1,6 C 4,1 km/h (1 Bft)
21.02.2020 00:30 22,1 C -1,6 C -1,8 C 47 % 73 % 1018,8 hPa 0,0 l/m 0,2 km/h (0 Bft) NO 45 -6,0 C -1,8 C 4,1 km/h (1 Bft)
21.02.2020 00:28 22,1 C -1,9 C -2,0 C 47 % 73 % 1018,8 hPa 0,0 l/m 0,0 km/h (0 Bft) S-SO 157 -6,2 C -2,0 C 0,0 km/h (0 Bft)
21.02.2020 00:26 22,1 C -1,9 C -1,9 C 47 % 73 % 1018,8 hPa 0,0 l/m 0,0 km/h (0 Bft) S-SO 157 -6,1 C -1,9 C 0,0 km/h (0 Bft)
21.02.2020 00:24 22,1 C -1,7 C -1,8 C 47 % 73 % 1018,8 hPa 0,0 l/m 0,2 km/h (0 Bft) S-SO 157 -6,0 C -1,8 C 0,0 km/h (0 Bft)
21.02.2020 00:22 22,1 C -1,7 C -1,8 C 47 % 73 % 1018,8 hPa 0,0 l/m 0,2 km/h (0 Bft) S-SO 157 -6,0 C -1,8 C 0,0 km/h (0 Bft)
21.02.2020 00:20 22,1 C -1,7 C -1,6 C 47 % 73 % 1018,9 hPa 0,0 l/m 0,2 km/h (0 Bft) S-SO 157 -5,8 C -1,6 C 0,0 km/h (0 Bft)
21.02.2020 00:18 22,1 C -1,6 C -1,6 C 47 % 73 % 1018,9 hPa 0,0 l/m 0,2 km/h (0 Bft) S-SO 157 -5,8 C -1,6 C 3,1 km/h (1 Bft)
21.02.2020 00:16 22,1 C -1,7 C -1,6 C 47 % 73 % 1018,9 hPa 0,0 l/m 0,2 km/h (0 Bft) S-SO 157 -5,8 C -1,6 C 3,4 km/h (1 Bft)
21.02.2020 00:14 22,1 C -1,6 C -1,6 C 47 % 73 % 1018,9 hPa 0,0 l/m 0,0 km/h (0 Bft) O 90 -5,8 C -1,6 C 3,4 km/h (1 Bft)
21.02.2020 00:12 22,1 C -1,6 C -1,6 C 47 % 73 % 1018,9 hPa 0,0 l/m 0,0 km/h (0 Bft) O 90 -5,8 C -1,6 C 0,0 km/h (0 Bft)
21.02.2020 00:10 22,1 C -1,6 C -1,4 C 47 % 73 % 1018,9 hPa 0,0 l/m 0,0 km/h (0 Bft) W-SW 247 -5,6 C -1,4 C 0,0 km/h (0 Bft)
21.02.2020 00:08 22,2 C -1,6 C -1,4 C 47 % 73 % 1018,9 hPa 0,0 l/m 0,0 km/h (0 Bft) W-SW 247 -5,6 C -1,4 C 0,0 km/h (0 Bft)
21.02.2020 00:06 22,1 C -1,6 C -1,4 C 47 % 73 % 1018,9 hPa 0,0 l/m 0,0 km/h (0 Bft) W-SW 247 -5,6 C -1,4 C 0,0 km/h (0 Bft)
21.02.2020 00:04 22,2 C -1,6 C -1,4 C 47 % 73 % 1018,9 hPa 0,0 l/m 0,0 km/h (0 Bft) W-SW 247 -5,6 C -1,4 C 0,0 km/h (0 Bft)
21.02.2020 00:02 22,2 C -1,6 C -1,4 C 47 % 73 % 1018,9 hPa 0,0 l/m 0,0 km/h (0 Bft) W-SW 247 -5,6 C -1,4 C 0,0 km/h (0 Bft)
21.02.2020 00:00 22,2 C -1,6 C -1,3 C 47 % 73 % 1018,6 hPa 0,0 l/m 0,0 km/h (0 Bft) W-SW 247 -5,5 C -1,3 C 0,0 km/h (0 Bft)
_ Min-Zeit 03:26 00:26 00:28 01:12 07:26 04:22 - 00:00 - - 00:28 00:28 00:00
Minimum _ 21,8 C -1,9 C -2,0 C 46 % 65 % 1017,4 hPa - 0,0 km/h (0 Bft) - - -6,2 C -2,0 C 0,0 km/h (0 Bft)
_ Max-Zeit 00:00 05:48 06:32 00:00 04:54 07:22 04:48 07:10 - - 06:06 05:46 05:06
Maximum _ 22,2 C 3,6 C 5,3 C 47 % 78 % 1022,2 hPa 0,4 l/m 18,5 km/h
W-SW (3 Bft)
- - 1,5 C 3,1 C 64,0 km/h
W-NW (8 Bft)
Durchschnitt _ 21,9 C 0,9 C 1,1 C 46 % 75 % 1018,7 hPa #2,3 l/m 5,2 km/h (1 Bft) W - -2,8 C 0,1 C 12,9 km/h (3 Bft)